TimeMDT,TemperatureF,Dew PointF,Humidity,Sea Level PressureIn,VisibilityMPH,Wind Direction,Wind SpeedMPH,Gust SpeedMPH,PrecipitationIn,Events,Conditions,WindDirDegrees,DateUTC
12:15 AM,32.0,23.9,72,29.87,10.0,Calm,Calm,-,N/A,,Mostly Cloudy,0,2013-03-17 06:15:00
12:35 AM,32.0,24.3,73,29.86,10.0,Calm,Calm,-,N/A,,Mostly Cloudy,0,2013-03-17 06:35:00
12:55 AM,30.4,23.5,76,29.86,10.0,Calm,Calm,-,N/A,,Scattered Clouds,0,2013-03-17 06:55:00
1:15 AM,30.7,24.4,77,29.85,10.0,Calm,Calm,-,N/A,,Clear,0,2013-03-17 07:15:00
1:35 AM,29.3,23.5,79,29.84,10.0,Calm,Calm,-,N/A,,Clear,0,2013-03-17 07:35:00
1:55 AM,28.6,23.0,80,29.83,10.0,Calm,Calm,-,N/A,,Clear,0,2013-03-17 07:55:00
2:15 AM,28.2,23.0,81,29.83,10.0,Calm,Calm,-,N/A,,Clear,0,2013-03-17 08:15:00
2:35 AM,28.2,23.4,82,29.83,10.0,Calm,Calm,-,N/A,,Clear,0,2013-03-17 08:35:00
2:55 AM,29.3,23.9,80,29.82,10.0,Calm,Calm,-,N/A,,Clear,0,2013-03-17 08:55:00
3:15 AM,28.6,23.5,81,29.81,10.0,Calm,Calm,-,N/A,,Clear,0,2013-03-17 09:15:00
3:35 AM,28.6,22.5,78,29.79,10.0,Calm,Calm,-,N/A,,Clear,0,2013-03-17 09:35:00
3:55 AM,27.5,22.1,80,29.78,10.0,Calm,Calm,-,N/A,,Clear,0,2013-03-17 09:55:00
4:35 AM,26.6,21.9,82,29.76,10.0,Calm,Calm,-,N/A,,Clear,0,2013-03-17 10:35:00
4:55 AM,26.6,22.5,84,29.75,10.0,Calm,Calm,-,N/A,,Clear,0,2013-03-17 10:55:00
5:15 AM,27.0,22.6,84,29.74,10.0,Calm,Calm,-,N/A,,Scattered Clouds,0,2013-03-17 11:15:00
5:35 AM,27.3,22.6,83,29.73,10.0,Calm,Calm,-,N/A,,Mostly Cloudy,0,2013-03-17 11:35:00
5:55 AM,26.2,22.1,84,29.75,10.0,Calm,Calm,-,N/A,,Overcast,0,2013-03-17 11:55:00
6:15 AM,30.2,23.2,75,29.76,10.0,SW,13.8,23.0,N/A,,Overcast,230,2013-03-17 12:15:00
6:35 AM,29.3,23.4,78,29.76,7.0,NNW,9.2,-,N/A,,Overcast,340,2013-03-17 12:35:00
6:55 AM,31.6,25.2,77,29.76,7.0,Calm,Calm,-,N/A,,Overcast,0,2013-03-17 12:55:00
7:15 AM,32.5,27.3,81,29.76,10.0,Calm,Calm,-,N/A,,Overcast,0,2013-03-17 13:15:00
7:35 AM,32.0,26.6,80,29.76,5.0,Calm,Calm,-,N/A,,Overcast,0,2013-03-17 13:35:00
7:55 AM,32.0,30.2,93,29.76,1.8,Calm,Calm,-,N/A,,Overcast,0,2013-03-17 13:55:00
8:15 AM,32.0,30.6,94,29.76,1.0,Calm,Calm,-,N/A,,Overcast,0,2013-03-17 14:15:00
8:35 AM,32.0,30.9,96,29.76,1.0,Calm,Calm,-,N/A,,Overcast,0,2013-03-17 14:35:00
8:55 AM,32.0,31.1,96,29.76,3.0,Calm,Calm,-,N/A,,Overcast,0,2013-03-17 14:55:00
9:15 AM,31.8,30.9,96,29.76,1.0,Calm,Calm,-,N/A,,Overcast,0,2013-03-17 15:15:00
9:35 AM,32.0,31.3,97,29.76,1.2,SE,3.5,-,N/A,,Overcast,140,2013-03-17 15:35:00
9:55 AM,32.7,31.5,95,29.75,5.0,Calm,Calm,-,N/A,,Overcast,0,2013-03-17 15:55:00
10:15 AM,35.2,28.9,78,29.73,10.0,SE,3.5,-,N/A,,Overcast,130,2013-03-17 16:15:00
10:35 AM,36.9,28.2,71,29.72,10.0,ESE,6.9,-,N/A,,Mostly Cloudy,110,2013-03-17 16:35:00
10:55 AM,39.6,27.5,62,29.72,10.0,ENE,4.6,-,N/A,,Mostly Cloudy,70,2013-03-17 16:55:00
11:15 AM,42.3,26.8,54,29.71,10.0,SW,3.5,-,N/A,,Mostly Cloudy,220,2013-03-17 17:15:00
11:35 AM,41.0,24.4,52,29.70,10.0,WSW,8.1,-,N/A,,Mostly Cloudy,250,2013-03-17 17:35:00
11:55 AM,41.2,18.9,41,29.69,10.0,WSW,20.7,28.8,N/A,,Mostly Cloudy,250,2013-03-17 17:55:00
12:15 PM,41.0,18.7,41,29.67,10.0,WSW,26.5,36.8,N/A,,Scattered Clouds,250,2013-03-17 18:15:00
12:35 PM,40.8,19.6,43,29.68,10.0,WSW,19.6,34.5,N/A,,Mostly Cloudy,250,2013-03-17 18:35:00
12:55 PM,40.8,18.3,40,29.68,10.0,WSW,16.1,25.3,N/A,,Mostly Cloudy,250,2013-03-17 18:55:00
1:15 PM,39.9,18.3,42,29.67,10.0,WSW,15.0,26.5,N/A,,Overcast,240,2013-03-17 19:15:00
1:35 PM,39.9,16.3,38,29.65,10.0,WSW,25.3,32.2,N/A,,Overcast,250,2013-03-17 19:35:00
1:55 PM,39.2,17.8,42,29.65,10.0,WSW,20.7,31.1,N/A,,Overcast,250,2013-03-17 19:55:00
2:15 PM,34.3,25.9,71,29.68,2.5,West,23.0,36.8,N/A,,Overcast,270,2013-03-17 20:15:00
2:35 PM,35.4,24.8,65,29.68,10.0,West,16.1,-,N/A,,Overcast,260,2013-03-17 20:35:00
2:55 PM,33.1,25.9,75,29.67,1.2,WSW,13.8,27.6,N/A,,Overcast,250,2013-03-17 20:55:00
3:15 PM,37.2,24.4,60,29.66,10.0,WSW,9.2,16.1,N/A,,Mostly Cloudy,240,2013-03-17 21:15:00
3:35 PM,39.4,19.0,44,29.65,10.0,West,29.9,42.6,N/A,,Mostly Cloudy,260,2013-03-17 21:35:00
3:55 PM,38.1,19.9,48,29.67,10.0,West,20.7,35.7,N/A,,Mostly Cloudy,270,2013-03-17 21:55:00
4:15 PM,37.8,18.0,45,29.67,10.0,West,24.2,29.9,N/A,,Mostly Cloudy,270,2013-03-17 22:15:00
4:35 PM,33.1,23.9,69,29.70,5.0,WSW,23.0,38.0,N/A,,Overcast,240,2013-03-17 22:35:00
4:55 PM,32.7,23.9,70,29.72,2.5,West,21.9,32.2,N/A,,Overcast,260,2013-03-17 22:55:00
5:15 PM,33.8,20.5,58,29.72,5.0,WSW,19.6,35.7,N/A,,Overcast,250,2013-03-17 23:15:00
5:35 PM,35.6,9.7,34,29.72,10.0,West,28.8,38.0,N/A,,Overcast,260,2013-03-17 23:35:00
5:55 PM,34.9,11.5,38,29.73,4.0,West,27.6,44.9,N/A,,Overcast,260,2013-03-17 23:55:00
6:15 PM,34.7,8.8,34,29.73,10.0,West,23.0,41.4,N/A,,Overcast,260,2013-03-18 00:15:00
6:35 PM,35.1,4.8,28,29.73,7.0,West,26.5,46.0,N/A,,Overcast,280,2013-03-18 00:35:00
6:55 PM,34.2,5.2,30,29.74,10.0,West,26.5,42.6,N/A,,Overcast,270,2013-03-18 00:55:00
7:15 PM,33.6,3.6,28,29.75,10.0,West,21.9,40.3,N/A,,Overcast,270,2013-03-18 01:15:00
7:35 PM,32.0,7.7,36,29.76,10.0,WNW,25.3,36.8,N/A,,Overcast,290,2013-03-18 01:35:00
7:55 PM,31.1,6.6,36,29.79,10.0,West,18.4,27.6,N/A,,Overcast,270,2013-03-18 01:55:00
8:15 PM,30.2,7.0,38,29.80,10.0,West,23.0,29.9,N/A,,Overcast,270,2013-03-18 02:15:00
8:35 PM,29.3,7.2,39,29.81,10.0,West,18.4,23.0,N/A,,Overcast,270,2013-03-18 02:35:00
8:55 PM,29.1,4.8,36,29.83,10.0,West,17.3,33.4,N/A,,Overcast,270,2013-03-18 02:55:00
9:15 PM,28.8,2.7,33,29.85,10.0,West,19.6,32.2,N/A,,Mostly Cloudy,260,2013-03-18 03:15:00
9:35 PM,27.9,1.9,33,29.86,10.0,West,17.3,31.1,N/A,,Scattered Clouds,270,2013-03-18 03:35:00
9:55 PM,27.3,1.8,33,29.88,10.0,West,15.0,27.6,N/A,,Mostly Cloudy,280,2013-03-18 03:55:00
10:15 PM,26.1,2.1,36,29.89,10.0,West,13.8,18.4,N/A,,Scattered Clouds,280,2013-03-18 04:15:00
10:35 PM,25.3,2.5,37,29.90,10.0,West,10.4,-,N/A,,Clear,280,2013-03-18 04:35:00
10:55 PM,24.1,2.7,40,29.91,10.0,WNW,12.7,18.4,N/A,,Clear,290,2013-03-18 04:55:00
11:15 PM,23.7,1.6,38,29.92,10.0,WNW,9.2,-,N/A,,Clear,290,2013-03-18 05:15:00
11:35 PM,23.2,1.4,39,29.93,10.0,West,3.5,-,N/A,,Clear,280,2013-03-18 05:35:00
11:55 PM,22.8,0.1,37,29.94,10.0,West,3.5,-,N/A,,Clear,280,2013-03-18 05:55:00